Fort Polk, LA

9:45 AM CDT on August 21, 2017 (GMT -0500)
Fort Polk

Weather History for KAQV - September, 2013

Change the Weather History Date:

Friday, September 27, 2013

  Actual Average (KPOE) Record (KPOE)
Temperature  
Mean Temperature 76 °F -  
Max Temperature 90 °F 82 °F 93 °F (1998)
Min Temperature 62 °F 61 °F 48 °F (2001)
Cooling Degree Days 11    
Growing Degree Days 26 (Base 50)    
Moisture  
Dew Point 63 °F    
Average Humidity 71    
Maximum Humidity 93    
Minimum Humidity 38    
Precipitation  
Precipitation 0.00 in - - ()
Sea Level Pressure  
Sea Level Pressure 29.95 in    
Wind  
Wind Speed 1 mph (East)    
Max Wind Speed 5 mph    
Max Gust Speed -    
Visibility 9 miles    
Events      
Averages and records for this station are not official NWS values.
T = Trace of Precipitation, MM = Missing Value Source: NWS Daily Summary

Daily Weather History Graph

Daily Weather History Graph

Search for Another Location

Airport or City:

Trip Planner

Search our weather history database for the weather conditions in past years. The results will help you decide how hot, cold, wet, or windy it might be!

Date:

Astronomy

Sep. 27, 2013 Rise Set
Actual Time 7:04 AM CDT 7:02 PM CDT
Civil Twilight 6:40 AM CDT 7:27 PM CDT
Nautical Twilight 6:12 AM CDT 7:55 PM CDT
Astronomical Twilight 5:43 AM CDT 8:23 PM CDT
Moon 12:21 AM CDT (9/27) 2:22 PM CDT (9/27)
Length of Visible Light 12h 46m
Length of Day
11h 58m
Last Quarter, 45% of the Moon is Illuminated
Sep 27
Last Quarter
Oct 4
New
Oct 11
First Quarter
Oct 18
Full
Oct 26
Last Quarter

Hourly Weather History & Observations

Time (CDT) Temp. Heat Index Dew Point Humidity Pressure Visibility Wind Dir Wind Speed Gust Speed Precip Events Conditions
12:56 AM 64.9 °F - 62.1 °F 90% 29.92 in 10.0 mi Calm Calm - N/A   Clear
1:56 AM 64.0 °F - 62.1 °F 93% 29.92 in 10.0 mi Calm Calm - N/A   Clear
2:56 AM 64.0 °F - 62.1 °F 93% 29.92 in 10.0 mi Calm Calm - N/A   Clear
3:56 AM 64.0 °F - 61.0 °F 90% 29.92 in 8.0 mi Calm Calm - N/A   Clear
4:56 AM 64.0 °F - 62.1 °F 93% 29.93 in 8.0 mi Calm Calm - N/A   Clear
5:56 AM 63.0 °F - 61.0 °F 93% 29.94 in 7.0 mi Calm Calm - N/A   Clear
6:56 AM 62.1 °F - 60.1 °F 93% 29.96 in 6.0 mi Calm Calm - N/A   Clear
7:56 AM 64.0 °F - 62.1 °F 93% 29.99 in 10.0 mi Calm Calm - N/A   Clear
8:56 AM 73.0 °F - 66.0 °F 79% 29.99 in 10.0 mi Calm Calm - N/A   Clear
10:56 AM 84.0 °F 86.3 °F 66.0 °F 55% 30.00 in 10.0 mi Variable 4.6 mph - N/A   Clear
11:56 AM 84.9 °F 86.6 °F 64.9 °F 51% 29.99 in 10.0 mi Calm Calm - N/A   Partly Cloudy
12:56 PM 87.1 °F 87.5 °F 62.1 °F 43% 29.97 in 10.0 mi Variable 4.6 mph - N/A   Scattered Clouds
1:56 PM 89.1 °F 89.0 °F 61.0 °F 39% 29.95 in 10.0 mi Calm Calm - N/A   Clear
2:56 PM 90.0 °F 90.0 °F 61.0 °F 38% 29.92 in 10.0 mi Variable 3.5 mph - N/A   Clear
3:56 PM 89.1 °F 88.8 °F 60.1 °F 38% 29.91 in 10.0 mi Variable 4.6 mph - N/A   Clear
4:56 PM 89.1 °F 89.0 °F 61.0 °F 39% 29.91 in 10.0 mi East 3.5 mph - N/A   Mostly Cloudy
5:56 PM 84.9 °F 85.4 °F 62.1 °F 46% 29.92 in 10.0 mi Calm Calm - N/A   Clear
6:56 PM 81.0 °F 82.5 °F 64.0 °F 56% 29.93 in 10.0 mi Calm Calm - N/A   Clear
7:56 PM 78.1 °F - 64.0 °F 62% 29.94 in 10.0 mi Calm Calm - N/A   Clear
8:56 PM 73.0 °F - 66.0 °F 79% 29.96 in 10.0 mi Calm Calm - N/A   Clear
9:56 PM 70.0 °F - 66.0 °F 87% 29.96 in 10.0 mi Calm Calm - N/A   Clear
10:56 PM 69.1 °F - 64.9 °F 87% 29.96 in 10.0 mi Calm Calm - N/A   Clear
11:56 PM 68.0 °F - 64.9 °F 90% 29.96 in 6.0 mi Calm Calm - N/A   Clear